QPF
0.05 0.06 0.06 0.06 0.06 0.07 0.05 0.02 0.02 0.02 0.02 0.02 0.01 0.01 0.01 0.00 0.00 0.00 0.00 0.00 0.00 0.00 0.00 0.00 0.00 0.00 0.00 0.00 0.00 0.00 0.00 0.00 0.00 0.00 0.00 0.00 0.00 0.00 0.00 0.00 0.00 0.00 0.00
0.05 0.05 0.06 0.06 0.05 0.05 0.05 0.03 0.02 0.02 0.02 0.02 0.02 0.01 0.01 0.01 0.01 0.00 0.00 0.00 0.00 0.00 0.00 0.00 0.00 0.00 0.00 0.00 0.00 0.00 0.00 0.00 0.00 0.00 0.00 0.00 0.00 0.00 0.00 0.00 0.00 0.00 0.00
0.05 0.06 0.06 0.04 0.03 0.03 0.04 0.03 0.02 0.02 0.01 0.02 0.02 0.01 0.01 0.01 0.01 0.00 0.00 0.00 0.00 0.00 0.00 0.00 0.00 0.00 0.00 0.00 0.00 0.00 0.00 0.00 0.00 0.00 0.00 0.00 0.00 0.00 0.00 0.00 0.00 0.00 0.00
0.05 0.06 0.05 0.04 0.03 0.03 0.03 0.03 0.02 0.01 0.01 0.01 0.01 0.01 0.01 0.01 0.01 0.01 0.01 0.00 0.00 0.00 0.00 0.00 0.00 0.00 0.00 0.00 0.00 0.00 0.00 0.00 0.00 0.00 0.00 0.00 0.00 0.00 0.00 0.00 0.00 0.00 0.00
0.03 0.03 0.03 0.03 0.03 0.03 0.03 0.03 0.02 0.02 0.02 0.02 0.02 0.01 0.01 0.01 0.01 0.01 0.00 0.00 0.00 0.00 0.00 0.00 0.00 0.00 0.00 0.00 0.00 0.00 0.00 0.00 0.00 0.00 0.00 0.00 0.00 0.00 0.00 0.00 0.00 0.00 0.00
0.02 0.03 0.03 0.02 0.03 0.03 0.03 0.03 0.03 0.03 0.03 0.03 0.02 0.02 0.01 0.00 0.01 0.01 0.00 0.00 0.00 0.00 0.00 0.00 0.00 0.00 0.00 0.00 0.00 0.00 0.00 0.00 0.00 0.00 0.00 0.00 0.01 0.01 0.01 0.00 0.00 0.00 0.00
0.02 0.02 0.02 0.02 0.02 0.03 0.03 0.02 0.02 0.02 0.03 0.03 0.02 0.01 0.01 0.01 0.01 0.01 0.01 0.00 0.00 0.00 0.01 0.00 0.00 0.00 0.00 0.00 0.00 0.00 0.00 0.00 0.00 0.00 0.01 0.01 0.01 0.01 0.01 0.01 0.01 0.01 0.00
0.01 0.01 0.01 0.02 0.02 0.02 0.02 0.01 0.01 0.01 0.02 0.02 0.02 0.02 0.01 0.01 0.02 0.01 0.01 0.01 0.01 0.01 0.00 0.00 0.00 0.00 0.00 0.00 0.00 0.00 0.00 0.00 0.00 0.00 0.00 0.00 0.01 0.01 0.01 0.01 0.00 0.00 0.00
0.01 0.00 0.01 0.01 0.01 0.01 0.01 0.01 0.01 0.01 0.01 0.01 0.02 0.02 0.01 0.02 0.02 0.01 0.01 0.01 0.01 0.01 0.00 0.00 0.00 0.00 0.00 0.00 0.00 0.00 0.01 0.01 0.01 0.01 0.00 0.00 0.00 0.00 0.00 0.00 0.00 0.01 0.00
0.01 0.01 0.01 0.01 0.02 0.02 0.03 0.04 0.03 0.03 0.02 0.03 0.03 0.03 0.03 0.03 0.03 0.02 0.02 0.01 0.01 0.01 0.01 0.01 0.01 0.00 0.00 0.00 0.00 0.01 0.02 0.03 0.02 0.01 0.01 0.00 0.00 0.01 0.01 0.01 0.01 0.01 0.01
0.02 0.03 0.03 0.02 0.03 0.04 0.04 0.05 0.04 0.04 0.04 0.06 0.07 0.07 0.05 0.04 0.04 0.03 0.02 0.02 0.02 0.02 0.02 0.02 0.02 0.02 0.01 0.01 0.01 0.01 0.02 0.02 0.01 0.01 0.01 0.01 0.01 0.01 0.01 0.01 0.01 0.01 0.01
0.03 0.06 0.06 0.05 0.04 0.03 0.04 0.04 0.04 0.04 0.04 0.04 0.04 0.03 0.03 0.03 0.04 0.04 0.03 0.02 0.02 0.02 0.03 0.03 0.03 0.03 0.02 0.02 0.02 0.01 0.01 0.00 0.00 0.00 0.00 0.00 0.00 0.01 0.01 0.01 0.01 0.01 0.01
0.02 0.04 0.05 0.06 0.07 0.07 0.07 0.07 0.07 0.06 0.05 0.05 0.04 0.04 0.04 0.03 0.03 0.03 0.02 0.02 0.02 0.01 0.02 0.03 0.02 0.02 0.02 0.01 0.01 0.01 0.00 0.00 0.01 0.01 0.01 0.01 0.01 0.01 0.01 0.00 0.01 0.01 0.01
0.02 0.02 0.03 0.05 0.07 0.09 0.11 0.11 0.10 0.08 0.08 0.06 0.05 0.04 0.03 0.02 0.03 0.03 0.03 0.03 0.02 0.02 0.01 0.02 0.02 0.02 0.02 0.01 0.01 0.01 0.02 0.02 0.02 0.02 0.02 0.02 0.01 0.01 0.01 0.01 0.01 0.02 0.01
0.03 0.04 0.05 0.06 0.08 0.09 0.08 0.09 0.09 0.08 0.07 0.06 0.06 0.06 0.06 0.06 0.06 0.05 0.05 0.03 0.02 0.02 0.02 0.02 0.02 0.03 0.03 0.03 0.03 0.03 0.03 0.03 0.03 0.03 0.03 0.02 0.02 0.02 0.02 0.02 0.02 0.02 0.02
0.03 0.03 0.04 0.05 0.07 0.07 0.07 0.07 0.08 0.07 0.07 0.07 0.08 0.09 0.08 0.07 0.07 0.06 0.04 0.04 0.04 0.04 0.04 0.05 0.06 0.06 0.06 0.05 0.04 0.04 0.04 0.05 0.05 0.04 0.03 0.02 0.01 0.01 0.01 0.01 0.02 0.02 0.02
0.03 0.03 0.03 0.03 0.04 0.05 0.05 0.05 0.06 0.07 0.07 0.07 0.07 0.08 0.07 0.07 0.07 0.07 0.07 0.08 0.08 0.08 0.08 0.07 0.07 0.07 0.07 0.07 0.07 0.07 0.06 0.05 0.04 0.03 0.02 0.01 0.01 0.01 0.01 0.01 0.02 0.02 0.02
0.04 0.04 0.04 0.03 0.03 0.04 0.05 0.05 0.05 0.05 0.05 0.06 0.06 0.06 0.06 0.05 0.06 0.06 0.06 0.06 0.05 0.06 0.06 0.07 0.07 0.09 0.09 0.09 0.07 0.06 0.05 0.03 0.03 0.02 0.02 0.02 0.02 0.02 0.02 0.02 0.02 0.03 0.03
0.03 0.04 0.04 0.03 0.03 0.03 0.04 0.04 0.05 0.06 0.06 0.06 0.05 0.05 0.05 0.04 0.04 0.04 0.04 0.03 0.04 0.06 0.07 0.08 0.07 0.07 0.06 0.05 0.05 0.04 0.04 0.04 0.03 0.03 0.02 0.02 0.02 0.02 0.03 0.03 0.03 0.03 0.02
0.02 0.03 0.03 0.02 0.02 0.02 0.03 0.03 0.04 0.04 0.05 0.07 0.08 0.08 0.07 0.07 0.06 0.05 0.05 0.04 0.04 0.05 0.05 0.05 0.05 0.04 0.04 0.04 0.04 0.04 0.04 0.04 0.04 0.03 0.03 0.03 0.03 0.03 0.03 0.02 0.02 0.02 0.02
0.02 0.02 0.03 0.03 0.02 0.02 0.02 0.03 0.03 0.05 0.08 0.10 0.10 0.11 0.12 0.11 0.09 0.08 0.07 0.06 0.05 0.05 0.04 0.04 0.04 0.04 0.04 0.04 0.04 0.04 0.04 0.04 0.04 0.04 0.03 0.03 0.03 0.03 0.03 0.02 0.02 0.02 0.02
0.02 0.02 0.02 0.03 0.03 0.03 0.03 0.04 0.05 0.06 0.07 0.08 0.08 0.10 0.11 0.09 0.08 0.07 0.07 0.06 0.06 0.05 0.05 0.05 0.05 0.05 0.05 0.05 0.05 0.05 0.05 0.05 0.04 0.04 0.04 0.03 0.03 0.03 0.02 0.02 0.02 0.03 0.03
0.04 0.04 0.03 0.03 0.03 0.03 0.04 0.04 0.04 0.05 0.06 0.07 0.08 0.08 0.08 0.07 0.06 0.06 0.06 0.05 0.05 0.05 0.05 0.05 0.04 0.03 0.03 0.03 0.03 0.04 0.04 0.04 0.04 0.03 0.03 0.03 0.03 0.03 0.03 0.03 0.03 0.03 0.04
0.04 0.04 0.04 0.03 0.03 0.04 0.04 0.04 0.04 0.05 0.04 0.04 0.04 0.03 0.03 0.03 0.03 0.03 0.03 0.03 0.03 0.03 0.03 0.03 0.02 0.02 0.02 0.02 0.02 0.02 0.03 0.02 0.02 0.02 0.02 0.02 0.02 0.02 0.02 0.02 0.03 0.04 0.05
0.01 0.01 0.02 0.02 0.03 0.03 0.03 0.02 0.02 0.02 0.02 0.01 0.01 0.01 0.01 0.01 0.01 0.01 0.01 0.02 0.02 0.02 0.01 0.01 0.01 0.01 0.01 0.01 0.01 0.01 0.01 0.01 0.01 0.01 0.01 0.01 0.01 0.02 0.02 0.03 0.03 0.04 0.04
0.01 0.01 0.01 0.01 0.01 0.01 0.01 0.01 0.01 0.01 0.01 0.01 0.01 0.00 0.00 0.00 0.00 0.00 0.00 0.00 0.00 0.00 0.00 0.00 0.01 0.01 0.01 0.01 0.01 0.01 0.01 0.01 0.01 0.01 0.01 0.01 0.02 0.02 0.03 0.02 0.02 0.03 0.03
MSLP
1012.24 1012.79 1013.36 1013.92 1014.45 1014.94 1015.39 1015.80 1016.20 1016.59 1016.97 1017.36 1017.75 1018.12 1018.47 1018.78 1019.04 1019.25 1019.40 1019.51 1019.59 1019.64 1019.68 1019.71 1019.74 1019.76 1019.78 1019.79 1019.80 1019.79 1019.76 1019.73 1019.69 1019.65 1019.61 1019.57 1019.54 1019.52 1019.52 1019.53 1019.55 1019.59 1019.63
1012.21 1012.72 1013.25 1013.78 1014.29 1014.77 1015.22 1015.64 1016.04 1016.43 1016.81 1017.19 1017.56 1017.92 1018.25 1018.56 1018.83 1019.06 1019.25 1019.40 1019.52 1019.62 1019.70 1019.76 1019.82 1019.86 1019.90 1019.92 1019.94 1019.94 1019.94 1019.92 1019.89 1019.85 1019.80 1019.74 1019.68 1019.61 1019.54 1019.47 1019.41 1019.35 1019.30
1012.18 1012.67 1013.16 1013.66 1014.14 1014.62 1015.06 1015.49 1015.90 1016.29 1016.67 1017.05 1017.40 1017.75 1018.07 1018.37 1018.64 1018.88 1019.09 1019.28 1019.43 1019.56 1019.67 1019.77 1019.85 1019.91 1019.97 1020.01 1020.04 1020.06 1020.07 1020.06 1020.05 1020.02 1019.97 1019.90 1019.81 1019.71 1019.59 1019.45 1019.31 1019.16 1019.02
1012.11 1012.58 1013.05 1013.52 1013.99 1014.45 1014.89 1015.33 1015.75 1016.15 1016.55 1016.92 1017.28 1017.62 1017.93 1018.23 1018.50 1018.74 1018.96 1019.16 1019.33 1019.48 1019.62 1019.73 1019.83 1019.91 1019.98 1020.03 1020.07 1020.10 1020.11 1020.12 1020.11 1020.09 1020.04 1019.97 1019.86 1019.73 1019.58 1019.39 1019.19 1018.98 1018.76
1011.94 1012.40 1012.86 1013.31 1013.77 1014.22 1014.67 1015.12 1015.55 1015.98 1016.40 1016.79 1017.16 1017.51 1017.82 1018.11 1018.37 1018.61 1018.83 1019.03 1019.20 1019.36 1019.51 1019.63 1019.73 1019.82 1019.89 1019.94 1019.98 1020.01 1020.03 1020.03 1020.02 1019.99 1019.94 1019.87 1019.76 1019.62 1019.44 1019.23 1018.99 1018.73 1018.45
1011.63 1012.11 1012.56 1013.01 1013.45 1013.90 1014.35 1014.81 1015.28 1015.73 1016.18 1016.60 1017.00 1017.36 1017.68 1017.97 1018.23 1018.45 1018.66 1018.84 1019.01 1019.17 1019.30 1019.42 1019.52 1019.61 1019.67 1019.72 1019.75 1019.76 1019.77 1019.76 1019.74 1019.70 1019.64 1019.55 1019.44 1019.29 1019.11 1018.89 1018.64 1018.36 1018.05
1011.17 1011.67 1012.13 1012.57 1013.01 1013.46 1013.92 1014.39 1014.88 1015.37 1015.85 1016.31 1016.73 1017.11 1017.45 1017.74 1017.99 1018.20 1018.39 1018.56 1018.71 1018.84 1018.97 1019.08 1019.17 1019.24 1019.30 1019.33 1019.35 1019.34 1019.32 1019.29 1019.24 1019.18 1019.11 1019.01 1018.89 1018.75 1018.57 1018.36 1018.12 1017.84 1017.53
1010.57 1011.09 1011.57 1012.02 1012.45 1012.90 1013.36 1013.85 1014.36 1014.88 1015.39 1015.88 1016.32 1016.72 1017.07 1017.36 1017.60 1017.81 1017.97 1018.12 1018.25 1018.37 1018.47 1018.57 1018.65 1018.72 1018.77 1018.79 1018.79 1018.77 1018.73 1018.67 1018.59 1018.50 1018.40 1018.29 1018.16 1018.02 1017.86 1017.67 1017.45 1017.19 1016.90
1009.86 1010.42 1010.92 1011.37 1011.81 1012.26 1012.73 1013.22 1013.74 1014.27 1014.80 1015.30 1015.77 1016.18 1016.53 1016.82 1017.06 1017.25 1017.40 1017.52 1017.64 1017.74 1017.84 1017.93 1018.01 1018.07 1018.12 1018.14 1018.13 1018.10 1018.04 1017.95 1017.85 1017.73 1017.61 1017.48 1017.34 1017.20 1017.05 1016.88 1016.69 1016.47 1016.21
1009.11 1009.70 1010.22 1010.69 1011.14 1011.59 1012.06 1012.55 1013.07 1013.60 1014.13 1014.64 1015.10 1015.51 1015.86 1016.15 1016.37 1016.55 1016.69 1016.80 1016.90 1017.00 1017.10 1017.19 1017.28 1017.35 1017.41 1017.44 1017.44 1017.40 1017.34 1017.24 1017.12 1016.98 1016.83 1016.68 1016.52 1016.37 1016.23 1016.07 1015.91 1015.72 1015.50
1008.36 1008.98 1009.53 1010.02 1010.48 1010.94 1011.40 1011.89 1012.40 1012.92 1013.43 1013.93 1014.38 1014.78 1015.12 1015.40 1015.61 1015.78 1015.91 1016.02 1016.12 1016.22 1016.32 1016.43 1016.53 1016.63 1016.70 1016.75 1016.77 1016.75 1016.69 1016.59 1016.46 1016.30 1016.13 1015.96 1015.79 1015.62 1015.47 1015.32 1015.17 1015.00 1014.81
1007.65 1008.31 1008.89 1009.41 1009.89 1010.35 1010.82 1011.30 1011.79 1012.29 1012.78 1013.25 1013.68 1014.06 1014.38 1014.64 1014.85 1015.01 1015.14 1015.25 1015.36 1015.47 1015.58 1015.70 1015.83 1015.95 1016.05 1016.12 1016.17 1016.16 1016.12 1016.03 1015.89 1015.73 1015.55 1015.35 1015.15 1014.96 1014.79 1014.62 1014.46 1014.30 1014.12
1007.02 1007.71 1008.32 1008.87 1009.37 1009.85 1010.32 1010.80 1011.27 1011.75 1012.21 1012.65 1013.05 1013.40 1013.70 1013.95 1014.15 1014.31 1014.44 1014.56 1014.68 1014.80 1014.92 1015.06 1015.20 1015.34 1015.46 1015.56 1015.62 1015.64 1015.61 1015.53 1015.40 1015.24 1015.04 1014.81 1014.59 1014.36 1014.15 1013.95 1013.77 1013.59 1013.40
1006.48 1007.19 1007.83 1008.40 1008.94 1009.44 1009.92 1010.39 1010.86 1011.31 1011.74 1012.15 1012.52 1012.85 1013.13 1013.36 1013.56 1013.72 1013.86 1013.99 1014.11 1014.23 1014.37 1014.51 1014.65 1014.79 1014.93 1015.03 1015.11 1015.14 1015.12 1015.05 1014.92 1014.75 1014.53 1014.29 1014.02 1013.76 1013.50 1013.26 1013.03 1012.81 1012.60
1006.07 1006.78 1007.42 1008.02 1008.58 1009.10 1009.60 1010.07 1010.53 1010.97 1011.38 1011.76 1012.10 1012.41 1012.67 1012.90 1013.09 1013.25 1013.40 1013.53 1013.65 1013.77 1013.90 1014.03 1014.16 1014.29 1014.41 1014.50 1014.57 1014.59 1014.57 1014.50 1014.37 1014.18 1013.95 1013.68 1013.39 1013.08 1012.77 1012.47 1012.19 1011.93 1011.69
1005.81 1006.48 1007.12 1007.73 1008.30 1008.84 1009.35 1009.83 1010.28 1010.70 1011.10 1011.46 1011.78 1012.07 1012.32 1012.54 1012.73 1012.89 1013.04 1013.17 1013.28 1013.39 1013.50 1013.60 1013.70 1013.79 1013.87 1013.93 1013.97 1013.97 1013.93 1013.84 1013.70 1013.50 1013.25 1012.96 1012.63 1012.28 1011.93 1011.59 1011.26 1010.96 1010.68
1005.71 1006.34 1006.95 1007.54 1008.11 1008.64 1009.16 1009.64 1010.09 1010.50 1010.88 1011.22 1011.53 1011.80 1012.04 1012.26 1012.45 1012.61 1012.75 1012.87 1012.97 1013.06 1013.13 1013.19 1013.24 1013.28 1013.30 1013.31 1013.31 1013.27 1013.20 1013.08 1012.92 1012.71 1012.45 1012.13 1011.79 1011.42 1011.04 1010.66 1010.31 1009.98 1009.68
1005.83 1006.38 1006.93 1007.48 1008.02 1008.55 1009.05 1009.52 1009.96 1010.36 1010.72 1011.05 1011.34 1011.60 1011.83 1012.04 1012.22 1012.38 1012.51 1012.62 1012.70 1012.76 1012.79 1012.80 1012.80 1012.78 1012.74 1012.69 1012.63 1012.55 1012.44 1012.30 1012.12 1011.89 1011.62 1011.30 1010.95 1010.57 1010.18 1009.80 1009.44 1009.10 1008.80
1006.17 1006.63 1007.10 1007.60 1008.09 1008.59 1009.06 1009.51 1009.92 1010.30 1010.64 1010.95 1011.22 1011.47 1011.69 1011.88 1012.06 1012.21 1012.33 1012.42 1012.48 1012.51 1012.50 1012.47 1012.41 1012.33 1012.24 1012.14 1012.02 1011.90 1011.75 1011.59 1011.39 1011.16 1010.89 1010.58 1010.24 1009.88 1009.50 1009.14 1008.79 1008.47 1008.19
1006.76 1007.11 1007.49 1007.91 1008.35 1008.78 1009.21 1009.62 1010.01 1010.35 1010.67 1010.95 1011.20 1011.43 1011.63 1011.81 1011.98 1012.11 1012.22 1012.30 1012.34 1012.34 1012.30 1012.23 1012.13 1012.01 1011.87 1011.72 1011.57 1011.42 1011.25 1011.07 1010.87 1010.64 1010.38 1010.10 1009.78 1009.45 1009.11 1008.77 1008.46 1008.18 1007.92
1007.55 1007.80 1008.10 1008.44 1008.80 1009.17 1009.55 1009.91 1010.24 1010.55 1010.83 1011.08 1011.31 1011.51 1011.70 1011.86 1012.01 1012.14 1012.23 1012.29 1012.31 1012.29 1012.23 1012.14 1012.01 1011.86 1011.70 1011.52 1011.35 1011.18 1011.00 1010.82 1010.62 1010.41 1010.18 1009.92 1009.64 1009.35 1009.05 1008.76 1008.49 1008.24 1008.02
1008.53 1008.69 1008.90 1009.15 1009.44 1009.75 1010.06 1010.37 1010.66 1010.92 1011.17 1011.38 1011.58 1011.76 1011.92 1012.07 1012.20 1012.31 1012.39 1012.43 1012.44 1012.40 1012.32 1012.21 1012.07 1011.91 1011.73 1011.55 1011.37 1011.19 1011.02 1010.84 1010.66 1010.47 1010.26 1010.04 1009.80 1009.55 1009.29 1009.04 1008.80 1008.58 1008.39
1009.60 1009.69 1009.84 1010.02 1010.24 1010.49 1010.74 1010.99 1011.24 1011.46 1011.67 1011.86 1012.03 1012.19 1012.33 1012.46 1012.56 1012.65 1012.71 1012.73 1012.72 1012.67 1012.58 1012.46 1012.30 1012.13 1011.95 1011.77 1011.59 1011.42 1011.25 1011.09 1010.92 1010.75 1010.56 1010.37 1010.16 1009.93 1009.71 1009.48 1009.26 1009.05 1008.84
1010.70 1010.75 1010.84 1010.98 1011.15 1011.34 1011.54 1011.75 1011.95 1012.14 1012.32 1012.49 1012.64 1012.78 1012.90 1013.00 1013.09 1013.15 1013.19 1013.18 1013.15 1013.07 1012.96 1012.82 1012.65 1012.47 1012.28 1012.09 1011.91 1011.74 1011.58 1011.42 1011.26 1011.09 1010.92 1010.74 1010.54 1010.33 1010.11 1009.88 1009.65 1009.42 1009.18
1011.75 1011.78 1011.85 1011.96 1012.09 1012.24 1012.41 1012.58 1012.76 1012.93 1013.09 1013.23 1013.37 1013.49 1013.60 1013.68 1013.74 1013.78 1013.78 1013.74 1013.67 1013.55 1013.41 1013.23 1013.04 1012.83 1012.62 1012.42 1012.22 1012.04 1011.86 1011.69 1011.53 1011.36 1011.18 1010.99 1010.78 1010.56 1010.32 1010.07 1009.81 1009.53 1009.23
1012.72 1012.75 1012.82 1012.90 1013.01 1013.14 1013.29 1013.44 1013.60 1013.75 1013.90 1014.05 1014.17 1014.29 1014.38 1014.44 1014.48 1014.47 1014.43 1014.35 1014.22 1014.06 1013.86 1013.64 1013.39 1013.14 1012.89 1012.65 1012.42 1012.20 1012.00 1011.80 1011.61 1011.41 1011.20 1010.99 1010.75 1010.50 1010.22 1009.93 1009.61 1009.27 1008.89
Thickness
5731 5729 5729 5729 5729 5728 5727 5727 5726 5725 5724 5723 5722 5720 5718 5716 5715 5713 5715 5711 5709 5708 5706 5705 5702 5702 5703 5702 5700 5699 5697 5695 5692 5694 5693 5690 5685 5683 5684 5682 5682 5682 5683
5733 5731 5730 5730 5729 5728 5727 5727 5726 5725 5724 5723 5721 5719 5717 5715 5713 5712 5710 5709 5707 5705 5703 5702 5700 5699 5696 5696 5695 5694 5692 5690 5688 5685 5687 5687 5683 5681 5679 5678 5680 5682 5680
5735 5732 5731 5730 5729 5728 5728 5726 5726 5725 5723 5722 5719 5717 5716 5714 5712 5710 5709 5707 5706 5704 5702 5699 5697 5695 5692 5693 5689 5690 5689 5688 5684 5683 5683 5683 5682 5680 5677 5677 5678 5675 5676
5736 5734 5731 5730 5730 5729 5728 5727 5725 5724 5722 5720 5718 5717 5715 5713 5711 5709 5707 5705 5703 5702 5699 5697 5695 5693 5690 5688 5686 5684 5683 5682 5681 5679 5680 5680 5678 5678 5674 5674 5675 5676 5674
5736 5734 5732 5732 5731 5729 5728 5726 5724 5723 5722 5720 5717 5715 5714 5712 5711 5708 5705 5703 5700 5698 5696 5694 5693 5690 5688 5685 5685 5684 5681 5679 5679 5677 5677 5677 5676 5672 5671 5672 5670 5670 5671
5737 5735 5734 5732 5730 5729 5727 5726 5724 5722 5720 5718 5716 5714 5712 5712 5709 5704 5702 5701 5699 5696 5694 5692 5691 5686 5683 5678 5676 5675 5673 5672 5673 5672 5672 5671 5668 5668 5666 5664 5663 5662 5662
5738 5737 5735 5732 5730 5729 5728 5726 5723 5721 5719 5716 5715 5713 5711 5709 5704 5699 5695 5696 5696 5694 5692 5690 5690 5690 5683 5680 5675 5670 5668 5665 5662 5663 5665 5664 5663 5663 5658 5657 5655 5653 5652
5740 5738 5736 5733 5731 5729 5727 5725 5722 5720 5718 5715 5713 5712 5709 5706 5700 5696 5692 5691 5693 5691 5690 5688 5685 5684 5681 5677 5675 5672 5670 5667 5662 5658 5658 5658 5657 5655 5652 5649 5647 5647 5647
5742 5740 5738 5736 5733 5730 5727 5724 5722 5719 5717 5715 5713 5710 5707 5704 5698 5693 5688 5689 5689 5688 5687 5685 5683 5680 5675 5669 5667 5666 5665 5664 5661 5657 5653 5651 5648 5645 5641 5639 5641 5640 5642
5745 5743 5741 5738 5734 5731 5728 5725 5722 5719 5716 5714 5712 5710 5707 5704 5697 5691 5684 5688 5687 5686 5684 5683 5677 5674 5670 5663 5661 5660 5658 5658 5656 5654 5648 5645 5643 5640 5636 5632 5633 5633 5633
5747 5744 5741 5738 5735 5732 5728 5725 5722 5718 5716 5712 5710 5708 5705 5702 5696 5689 5684 5685 5686 5683 5682 5680 5678 5670 5663 5658 5654 5654 5653 5649 5648 5647 5645 5644 5642 5639 5636 5632 5628 5626 5624
5745 5742 5739 5736 5734 5732 5727 5723 5720 5716 5711 5708 5705 5703 5702 5699 5695 5688 5682 5678 5679 5679 5678 5677 5674 5665 5658 5652 5648 5647 5643 5638 5640 5640 5639 5638 5636 5635 5633 5629 5624 5619 5616
5741 5738 5735 5733 5731 5729 5725 5720 5715 5712 5709 5707 5703 5700 5699 5697 5693 5686 5679 5674 5670 5670 5672 5667 5662 5656 5650 5646 5642 5638 5634 5633 5634 5633 5631 5631 5630 5627 5623 5619 5616 5612 5608
5736 5734 5732 5728 5725 5723 5720 5717 5713 5711 5707 5704 5701 5698 5695 5693 5690 5685 5679 5671 5664 5661 5660 5658 5652 5647 5643 5641 5638 5633 5630 5629 5628 5625 5624 5623 5620 5617 5613 5610 5607 5604 5601
5731 5729 5727 5724 5720 5716 5713 5710 5709 5707 5706 5702 5699 5696 5691 5687 5683 5679 5676 5671 5666 5661 5656 5652 5649 5646 5642 5638 5635 5632 5628 5624 5620 5617 5614 5612 5609 5606 5603 5600 5595 5592 5589
5724 5722 5721 5719 5715 5712 5708 5703 5697 5696 5692 5690 5687 5685 5682 5677 5671 5667 5662 5658 5654 5650 5646 5645 5643 5640 5636 5633 5628 5624 5620 5617 5613 5609 5604 5601 5598 5595 5592 5589 5585 5581 5578
5717 5716 5716 5714 5710 5706 5703 5698 5692 5684 5680 5677 5675 5672 5669 5665 5660 5656 5651 5647 5642 5638 5637 5637 5634 5631 5628 5623 5619 5615 5611 5607 5602 5598 5594 5590 5587 5584 5581 5578 5575 5571 5568
5709 5707 5706 5705 5703 5700 5696 5693 5689 5684 5678 5673 5665 5660 5656 5653 5649 5645 5641 5636 5634 5630 5630 5628 5624 5620 5616 5612 5608 5605 5600 5596 5592 5587 5583 5580 5577 5574 5571 5568 5565 5561 5558
5699 5697 5696 5695 5694 5691 5688 5685 5681 5676 5672 5667 5662 5654 5646 5642 5638 5634 5631 5631 5629 5625 5622 5618 5614 5610 5606 5602 5597 5593 5588 5584 5580 5576 5572 5569 5566 5563 5560 5557 5554 5551 5546
5685 5682 5683 5684 5682 5680 5677 5674 5670 5666 5663 5658 5654 5649 5642 5637 5634 5628 5624 5622 5619 5615 5611 5607 5602 5598 5594 5590 5585 5580 5576 5572 5568 5565 5561 5558 5555 5552 5549 5547 5545 5542 5540
5674 5672 5669 5672 5670 5668 5665 5662 5660 5656 5651 5647 5641 5634 5627 5629 5625 5620 5616 5611 5607 5603 5598 5594 5590 5586 5582 5577 5572 5568 5564 5560 5556 5552 5549 5547 5544 5541 5538 5537 5535 5532 5530
5662 5660 5658 5657 5655 5653 5651 5649 5645 5641 5637 5632 5627 5622 5613 5615 5612 5607 5603 5598 5594 5589 5585 5581 5577 5572 5567 5563 5558 5554 5550 5547 5544 5541 5538 5535 5532 5530 5528 5526 5524 5521 5519
5647 5646 5644 5642 5640 5635 5635 5632 5629 5626 5622 5617 5613 5609 5604 5600 5596 5591 5587 5583 5579 5575 5571 5566 5561 5558 5553 5549 5544 5540 5537 5534 5531 5527 5524 5522 5520 5519 5517 5516 5514 5512 5511
5633 5632 5630 5627 5625 5623 5619 5616 5614 5610 5606 5602 5598 5594 5589 5585 5581 5577 5573 5568 5564 5560 5556 5552 5548 5544 5539 5535 5531 5528 5523 5518 5513 5512 5510 5509 5508 5507 5506 5505 5504 5503 5502
5620 5617 5615 5612 5610 5607 5604 5600 5597 5593 5589 5586 5582 5579 5575 5571 5567 5563 5559 5555 5550 5546 5542 5539 5535 5531 5527 5523 5518 5513 5507 5502 5499 5496 5496 5497 5498 5497 5496 5495 5495 5495 5494
5605 5603 5601 5598 5596 5592 5589 5585 5581 5577 5574 5570 5567 5564 5560 5557 5553 5549 5545 5541 5537 5533 5529 5526 5521 5518 5514 5510 5505 5499 5495 5492 5489 5486 5485 5487 5489 5490 5489 5488 5488 5487 5488